7 * 24
多渠道服务支持
STARLINK-38198(NORAD编号100160)是美国太空探索技术公司(SpaceX)星链星座的低轨通信卫星,由SpaceX自主研发,设计寿命约5年,运行于距地约550公里的近地轨道,核心功能是为全球偏远、通信基础设施薄弱区域提供千兆级高速互联网接入服务。作为星链组网卫星之一,其在2026年星链星座整体调整中属于计划降轨至480公里轨道的批次卫星,以缩短失效后离轨燃烧时间,降低太空碰撞风险,但大规模星链卫星的运行也对光学、射电天文观测存在一定干扰影响。
美国
(US)
| 数据来源 | 国际轨道数据 |
| 星历时间: | 2026-09-14T07:19:23+0800 9小时前 查看轨道信息 |
| 半长轴: | 6843.56km |
| 偏心率: | 0.0002283 |
| 轨道倾角: | 97.284° |
| 近地点辐角 | 98.218° |
| 升交点赤经 | 289.478° |
| 平近点角 | 261.932° |
| 近地点: | 463.86km |
| 远地点: | 466.986km |
| 周期: | 93.904分钟 |
| 每日圈数: | 15.334857 |